[[{"header":{"parameterUnit":"m.s-1","parameterCategory":2,"la1":30.2991,"la2":30.254,"lo1":-89.0895,"lo2":-89.0444,"dy":0.0017,"dx":0.0017,"nx":28,"ny":28,"refTime":"2024-04-11T09:00:00:Z","depth":"0","parameterNumber":2,"parameterNumberName":"U-component_of_CURRENTS"},"data":[0,0,0,0,0,0,0,0,0,0,0,0,0,0,0,0,0,0,0,0,0,0,0,0,0,0,0,0,0,0,0,0,0,0,0,0,0,0,0,0,0,0,0,0,0,0,0,0,0,0,0,0,0,0,0,0,0,0,0.4295,0.4296,0,0.4336,0.4336,0.4336,0.4335,0.4335,0.4335,0.4335,0.4321,0.4321,0.432,0,0,0,0,0,0,0,0,0,0,0,0,0,0.4204,0.4205,0.4295,0.4297,0.4298,0.4336,0.4336,0.4336,0.4335,0.4335,0.4335,0.4335,0.4321,0.4321,0.432,0,0,0,0,0,0,0,0,0,0,0,0,0,0.4237,0.4206,0.4295,0.4308,0.431,0.4336,0.4336,0.4336,0.4335,0.4335,0.4335,0.4335,0.4322,0.4321,0.432,0.431,0,0,0.4318,0.4317,0,0,0,0,0,0,0,0,0.4235,0.4239,0.4305,0.4307,0.431,0.4338,0.4299,0.4327,0.4335,0.4317,0.4335,0.4336,0.4327,0.4325,0.4322,0.4309,0.4309,0.4318,0.4317,0.4317,0.4317,0,0,0,0,0,0,0,0.4233,0.4237,0.4303,0.4306,0.4309,0.4308,0.4312,0.4304,0.4313,0.4318,0.432,0.4338,0.4327,0.4323,0.4322,0.4308,0.4318,0.4317,0.4316,0.4316,0.4342,0.4343,0,0,0,0,0,0,0.4244,0.4235,0.4302,0.4305,0.4281,0.431,0.4314,0.4322,0.4314,0.4316,0.4337,0.4338,0.4324,0.4323,0.4321,0.4357,0.4317,0.4316,0.4316,0.4341,0.4342,0.4344,0,0,0,0,0,0,0.4242,0.4249,0.4301,0.4278,0.4286,0.4312,0.432,0.4323,0.4326,0.433,0.4329,0.434,0.4324,0.4322,0.4321,0.4354,0.4316,0.4315,0.434,0.4341,0.4343,0.4397,0,0,0,0,0,0,0.4239,0.4248,0.4254,0.4279,0.4288,0.4307,0.4321,0.4324,0.434,0.434,0.4333,0.4331,0.4324,0.4322,0.432,0.4352,0.4314,0.4338,0.434,0.4343,0.4393,0.44,0.4406,0,0,0,0,0,0.4235,0.4222,0.4254,0.4262,0.4296,0.4307,0.4309,0.4324,0.434,0.433,0.4338,0.4332,0.4335,0.4321,0.4319,0.4352,0.4337,0.434,0.4342,0.4391,0.4399,0.4405,0,0,0,0,0,0,0.4166,0.4223,0.4257,0.4259,0.4289,0.431,0.43,0.4328,0.4327,0.4328,0.4333,0.4331,0.4354,0.4338,0.4323,0.4368,0.4341,0.4343,0.4379,0.4386,0.4392,0.4429,0.4314,0,0,0,0,0,0.4165,0.4178,0.4232,0.4232,0.4245,0.4281,0.429,0.4309,0.4319,0.4319,0.4328,0.4339,0.4362,0.4359,0.4368,0.4373,0.4407,0.4398,0.4404,0.4409,0.4439,0.4528,0.4546,0.4352,0.4352,0.4352,0,0,0.4131,0.4173,0.4175,0.4221,0.4238,0.4269,0.4282,0.4291,0.4331,0.4317,0.4349,0.436,0.437,0.4393,0.4401,0.4381,0.4477,0.4413,0.4417,0.4444,0.4533,0.4553,0.457,0.4354,0.4354,0.4354,0,0,0.4084,0.4114,0.4121,0.4157,0.4209,0.424,0.4251,0.4289,0.4312,0.434,0.4367,0.4402,0.4399,0.4441,0.4456,0.4499,0.4515,0.4493,0.4544,0.463,0.4648,0.4664,0.4711,0.4731,0.4486,0.4486,0.4486,0,0.4053,0.4084,0.4118,0.4151,0.4192,0.4235,0.4267,0.4296,0.4337,0.4376,0.435,0.4443,0.4435,0.4528,0.4538,0.4519,0.4554,0.4513,0.4641,0.4658,0.4673,0.4718,0.4739,0.4489,0.4489,0.4489,0.4488,0,0.4034,0.4068,0.4065,0.4145,0.4184,0.4204,0.428,0.4317,0.4354,0.4405,0.4493,0.4507,0.4571,0.4573,0.4558,0.4678,0.4662,0.4648,0.4627,0.4697,0.4738,0.4759,0.4493,0.4492,0.4491,0.4491,0,0,0.3947,0.4039,0.4046,0.4101,0.4193,0.4225,0.4296,0.4388,0.4456,0.4502,0.4599,0.465,0.4684,0.4707,0.4723,0.4783,0.4896,0.4755,0.4758,0.4809,0.507,0.4936,0.4945,0.4906,0.4911,0.4914,0.5047,0,0.3933,0.4,0.4058,0.4132,0.4175,0.4262,0.4334,0.4428,0.4493,0.4586,0.4663,0.4743,0.4732,0.4765,0.4838,0.4886,0.4958,0.486,0.4989,0.4993,0.4872,0.4968,0.4725,0.4813,0.5068,0.5071,0.5074,0,0.3909,0.3973,0.404,0.4169,0.4196,0.425,0.4398,0.4468,0.461,0.4664,0.4781,0.4836,0.4965,0.4923,0.5095,0.5032,0.5068,0.5095,0.51,0.498,0.4899,0.4788,0.4842,0.474,0.5107,0.5104,0.5102,0,0.3859,0.3962,0.4027,0.4069,0.4211,0.4267,0.4346,0.4487,0.457,0.4727,0.4798,0.4957,0.5029,0.5136,0.519,0.5157,0.5349,0.5309,0.5237,0.5226,0.5048,0.5014,0.5027,0.5452,0.5452,0.5451,0.5451,0,0.3836,0.3884,0.4006,0.4047,0.4143,0.4247,0.4357,0.4457,0.4604,0.4706,0.4842,0.4947,0.5085,0.5198,0.5249,0.5307,0.5411,0.5282,0.5271,0.5052,0.5019,0.4942,0.4896,0.5456,0.5455,0.5454,0.5453,0,0.3773,0.3842,0.3928,0.4074,0.4118,0.4191,0.4353,0.4429,0.4576,0.4713,0.4771,0.4964,0.5105,0.5226,0.5375,0.5354,0.528,0.5425,0.5135,0.5087,0.4873,0.4838,0.4706,0.4575,0.5371,0.5369,0.5367,0,0.3736,0.378,0.3935,0.3983,0.4045,0.4159,0.4232,0.4396,0.4476,0.4713,0.477,0.4956,0.5053,0.5227,0.5236,0.5314,0.5212,0.5114,0.5008,0.4857,0.4814,0.4656,0.4545,0.4793,0.4787,0.4781,0.4777,0,0.3691,0.3754,0.383,0.3932,0.4007,0.4106,0.4214,0.4273,0.4457,0.4554,0.4686,0.4782,0.4951,0.49,0.4988,0.5012,0.4844,0.5004,0.4946,0.4451,0.4187,0.4054,0.4697,0.473,0.4735,0.4738,0.4741,0.4743,0.3643,0.3688,0.3783,0.3859,0.3938,0.3997,0.4003,0.4114,0.4191,0.4261,0.4467,0.4491,0.4583,0.4661,0.465,0.4489,0.4534,0.4365,0.4366,0.4245,0.4011,0.4528,0.4481,0.4484,0.4486,0.4489,0.4491,0,0.3557,0.3618,0.3699,0.3754,0.3755,0.3858,0.3933,0.3884,0.3861,0.3995,0.4039,0.4062,0.4019,0.4093,0.4032,0.3887,0.3723,0.3802,0.3551,0.3501,0.4056,0.3922,0.363,0.363,0.363,0.363,0.363,0.363,0.3505,0.3528,0.3566,0.3524,0.3557,0.3489,0.3482,0.3443,0.3481,0.3412,0.3389,0.3481,0.3694,0.3719,0.3579,0.3487,0.3268,0.3076,0.3149,0.3572,0.3625,0.3675,0.3541,0.3174,0.3173,0.2417,0.2411,0.2407]},{"header":{"parameterUnit":"m.s-1","parameterCategory":2,"la1":30.2991,"la2":30.254,"lo1":-89.0895,"lo2":-89.0444,"dy":0.0017,"dx":0.0017,"nx":28,"ny":28,"refTime":"2024-04-11T09:00:00:Z","depth":"0","parameterNumber":3,"parameterNumberName":"V-component_of_CURRENTS"},"data":[0,0,0,0,0,0,0,0,0,0,0,0,0,0,0,0,0,0,0,0,0,0,0,0,0,0,0,0,0,0,0,0,0,0,0,0,0,0,0,0,0,0,0,0,0,0,0,0,0,0,0,0,0,0,0,0,0,0,-0.034,-0.0341,0,-0.0428,-0.0429,-0.043,-0.0479,-0.0479,-0.048,-0.048,-0.0573,-0.0575,-0.0578,0,0,0,0,0,0,0,0,0,0,0,0,0,-0.0238,-0.0239,-0.034,-0.0342,-0.0343,-0.0428,-0.0429,-0.043,-0.0479,-0.0479,-0.048,-0.048,-0.0573,-0.0575,-0.0578,0,0,0,0,0,0,0,0,0,0,0,0,0,-0.0298,-0.024,-0.034,-0.0379,-0.0383,-0.0427,-0.0429,-0.043,-0.0479,-0.0479,-0.048,-0.048,-0.0572,-0.0575,-0.0578,-0.0589,0,0,-0.0588,-0.059,0,0,0,0,0,0,0,0,-0.0294,-0.0301,-0.0372,-0.0376,-0.0381,-0.0445,-0.0427,-0.0484,-0.0479,-0.0441,-0.048,-0.048,-0.0532,-0.0538,-0.0551,-0.0593,-0.0597,-0.0588,-0.059,-0.0592,-0.0593,0,0,0,0,0,0,0,-0.029,-0.0298,-0.0373,-0.0373,-0.0379,-0.04,-0.0408,-0.0438,-0.0481,-0.0444,-0.0448,-0.0461,-0.0534,-0.0548,-0.0554,-0.0598,-0.0588,-0.0591,-0.0593,-0.0595,-0.0654,-0.0653,0,0,0,0,0,0,-0.0281,-0.0294,-0.037,-0.0376,-0.034,-0.0401,-0.0411,-0.0422,-0.0481,-0.0491,-0.046,-0.0463,-0.0542,-0.055,-0.0557,-0.0547,-0.0592,-0.0595,-0.0597,-0.0654,-0.0654,-0.0653,0,0,0,0,0,0,-0.0279,-0.0287,-0.0367,-0.0338,-0.035,-0.0402,-0.0415,-0.0424,-0.0434,-0.0493,-0.0503,-0.0461,-0.0542,-0.0552,-0.057,-0.0552,-0.0596,-0.0599,-0.0655,-0.0654,-0.0653,-0.0545,0,0,0,0,0,0,-0.0275,-0.0286,-0.0287,-0.0338,-0.0352,-0.0371,-0.0415,-0.0425,-0.0442,-0.0446,-0.0497,-0.0507,-0.0544,-0.0565,-0.0573,-0.0558,-0.0602,-0.0655,-0.0654,-0.0654,-0.0549,-0.054,-0.0533,0,0,0,0,0,-0.0271,-0.0258,-0.0286,-0.0296,-0.0353,-0.037,-0.0378,-0.0416,-0.0441,-0.043,-0.047,-0.0505,-0.0567,-0.0567,-0.0577,-0.0562,-0.0655,-0.0655,-0.0654,-0.0552,-0.0542,-0.0533,0,0,0,0,0,0,-0.0202,-0.0264,-0.0295,-0.03,-0.0328,-0.0379,-0.0374,-0.0408,-0.0432,-0.0437,-0.0495,-0.0506,-0.0522,-0.0556,-0.0555,-0.0579,-0.0619,-0.062,-0.0538,-0.0529,-0.0522,-0.0465,-0.0605,0,0,0,0,0,-0.0193,-0.0203,-0.026,-0.026,-0.0272,-0.0325,-0.0338,-0.0365,-0.0398,-0.041,-0.045,-0.0493,-0.0527,-0.0538,-0.0576,-0.0579,-0.0584,-0.058,-0.0572,-0.0565,-0.0527,-0.0523,-0.051,-0.065,-0.065,-0.065,0,0,-0.0166,-0.02,-0.0207,-0.0247,-0.0274,-0.0275,-0.0332,-0.034,-0.0336,-0.0416,-0.0415,-0.047,-0.0526,-0.0534,-0.0544,-0.0557,-0.053,-0.0564,-0.0557,-0.0522,-0.0521,-0.0507,-0.0494,-0.065,-0.065,-0.065,0,0,-0.011,-0.0147,-0.0139,-0.0158,-0.0196,-0.0227,-0.0226,-0.0274,-0.0286,-0.0301,-0.0361,-0.0388,-0.0446,-0.0468,-0.0492,-0.0462,-0.0496,-0.0493,-0.0395,-0.0392,-0.038,-0.0369,-0.0355,-0.0344,-0.0479,-0.0479,-0.0479,0,-0.0075,-0.008,-0.0133,-0.0126,-0.0133,-0.0199,-0.0181,-0.02,-0.0246,-0.0243,-0.0284,-0.0347,-0.0406,-0.0397,-0.0396,-0.0439,-0.0442,-0.0424,-0.0378,-0.0367,-0.0357,-0.0347,-0.0335,-0.0474,-0.0475,-0.0475,-0.0476,0,-0.0022,-0.0022,-0.0009,-0.0031,-0.004,-0.0031,-0.0072,-0.0073,-0.011,-0.0137,-0.0142,-0.0212,-0.0239,-0.0278,-0.033,-0.0295,-0.032,-0.0374,-0.0391,-0.0336,-0.0329,-0.0319,-0.0466,-0.0468,-0.047,-0.0471,0,0,0.0047,0.003,0.0034,0.0045,0.001,0.0015,0.003,0.0029,0.0063,0.0008,0.0056,-0.0027,-0.0061,-0.0088,-0.0155,-0.0157,-0.0115,-0.0227,-0.0229,-0.0192,-0.0092,-0.0137,-0.0131,-0.0161,-0.0159,-0.0157,-0.0113,0,0.0106,0.0142,0.0113,0.016,0.0178,0.0137,0.0167,0.0159,0.0143,0.0176,0.0119,0.0124,0.0011,0.0008,-0.001,-0.0091,-0.0083,-0.012,-0.0168,-0.0168,-0.0198,-0.0119,-0.0114,-0.0076,-0.0104,-0.0102,-0.0101,0,0.0164,0.018,0.0231,0.0262,0.0269,0.0294,0.0335,0.0353,0.0372,0.0367,0.0366,0.0316,0.031,0.0205,0.0141,0.0122,0.0039,-0.0027,-0.0028,-0.0091,-0.0193,-0.0139,-0.0058,-0.0254,-0.0086,-0.0087,-0.0088,0,0.0235,0.0268,0.0314,0.0321,0.0342,0.0378,0.0397,0.0418,0.0466,0.0505,0.0553,0.0512,0.0514,0.0417,0.0258,0.021,0.0192,0.0103,-0.0003,-0.0008,-0.002,-0.0029,-0.0111,0.0087,0.0086,0.0086,0.0086,0,0.0302,0.0345,0.036,0.0389,0.0478,0.0462,0.0566,0.058,0.0644,0.0743,0.0668,0.0746,0.0565,0.0514,0.0356,0.0222,0.0267,0.0055,0.0015,0.0015,0.0008,-0.018,-0.0288,0.0088,0.0088,0.0087,0.0087,0,0.0369,0.0373,0.044,0.0485,0.0514,0.0579,0.0675,0.076,0.0795,0.0932,0.096,0.0936,0.087,0.0683,0.053,0.0356,0.012,0.0158,0.0174,0.0134,-0.0171,-0.0272,-0.0368,-0.0442,0.007,0.0069,0.0069,0,0.0405,0.0445,0.0518,0.0581,0.061,0.0705,0.0791,0.0838,0.0939,0.1064,0.1156,0.1126,0.115,0.0905,0.0588,0.0339,0.0132,0.0153,0.0053,-0.0147,-0.029,-0.0379,-0.0441,0.0082,0.0082,0.0082,0.0082,0,0.0488,0.051,0.0568,0.0691,0.079,0.0897,0.1021,0.1119,0.1211,0.1337,0.1487,0.1521,0.1282,0.1024,0.0635,0.044,0.0017,0.0136,-0.0065,-0.0262,-0.0364,-0.0469,0.0009,0.0079,0.0079,0.0079,0.0079,0.008,0.0561,0.0618,0.0701,0.082,0.0937,0.1084,0.1194,0.1341,0.1521,0.1718,0.173,0.1824,0.1409,0.0886,0.0582,-0.0004,-0.0011,-0.0198,-0.0292,-0.0354,-0.0462,0.0013,0.0016,0.0016,0.0016,0.0016,0.0016,0,0.0659,0.072,0.0831,0.0975,0.1114,0.1149,0.1351,0.1476,0.1705,0.1894,0.2026,0.1895,0.1389,0.0848,0.006,-0.0359,-0.0504,-0.0589,-0.0712,-0.0747,-0.0309,-0.035,-0.0432,-0.0432,-0.0432,-0.0432,-0.0431,-0.0431,0.0719,0.0834,0.0879,0.1103,0.1208,0.1395,0.1509,0.1702,0.1868,0.2103,0.2183,0.2205,0.1788,0.039,-0.0572,-0.0787,-0.1055,-0.1128,-0.1262,-0.0988,-0.096,-0.0932,-0.0997,-0.1214,-0.1215,-0.1653,-0.1658,-0.1661]}],[{"header":{"parameterUnit":"m.s-1","parameterCategory":2,"la1":30.2991,"la2":30.254,"lo1":-89.0895,"lo2":-89.0444,"dy":0.0017,"dx":0.0017,"nx":28,"ny":28,"refTime":"2024-04-11T09:00:00:Z","depth":"2","parameterNumber":2,"parameterNumberName":"U-component_of_CURRENTS"},"data":[0,0,0,0,0,0,0,0,0,0,0,0,0,0,0,0,0,0,0,0,0,0,0,0,0,0,0,0,0,0,0,0,0,0,0,0,0,0,0,0,0,0,0,0,0,0,0,0,0,0,0,0,0,0,0,0,0,0,0.31,0.3101,0,0.3134,0.3134,0.3135,0.3196,0.3197,0.3198,0.3199,0.3191,0.319,0.3189,0,0,0,0,0,0,0,0,0,0,0,0,0,0.3054,0.3055,0.31,0.3101,0.3101,0.3134,0.3135,0.3135,0.3196,0.3197,0.3198,0.3199,0.3192,0.319,0.3189,0,0,0,0,0,0,0,0,0,0,0,0,0,0.3081,0.3055,0.31,0.3134,0.3137,0.3134,0.3135,0.3135,0.3195,0.3197,0.3198,0.32,0.3192,0.319,0.3189,0.3147,0,0,0.3183,0.3183,0,0,0,0,0,0,0,0,0.3079,0.3083,0.3129,0.3132,0.3135,0.3161,0.3115,0.3137,0.3195,0.3175,0.3199,0.3201,0.3175,0.3175,0.3181,0.3147,0.3146,0.3183,0.3182,0.3181,0.3181,0,0,0,0,0,0,0,0.3077,0.3081,0.3115,0.3129,0.3133,0.3135,0.3142,0.312,0.3166,0.3177,0.3181,0.3182,0.3177,0.3182,0.3181,0.3146,0.3183,0.3182,0.3181,0.318,0.3231,0.3233,0,0,0,0,0,0,0.307,0.308,0.3114,0.3116,0.3109,0.3135,0.3142,0.3152,0.3167,0.3171,0.318,0.3184,0.3184,0.3183,0.318,0.3241,0.3181,0.318,0.3179,0.3229,0.3232,0.3234,0,0,0,0,0,0,0.307,0.3074,0.3113,0.3097,0.3102,0.3134,0.3145,0.3152,0.3178,0.3171,0.3174,0.3202,0.3185,0.3183,0.3201,0.3237,0.3179,0.3177,0.3226,0.323,0.3233,0.3292,0,0,0,0,0,0,0.3068,0.3073,0.3076,0.3097,0.3103,0.313,0.3144,0.3152,0.3174,0.318,0.3189,0.3189,0.3186,0.3204,0.32,0.3234,0.3176,0.3223,0.3228,0.3232,0.3287,0.3297,0.3306,0,0,0,0,0,0.3067,0.3064,0.3076,0.308,0.3107,0.3131,0.3135,0.3163,0.3174,0.3191,0.3209,0.319,0.3231,0.3204,0.3198,0.3233,0.3221,0.3226,0.3232,0.3283,0.3295,0.3306,0,0,0,0,0,0,0.3038,0.307,0.3084,0.309,0.3118,0.3141,0.3151,0.3167,0.3193,0.3207,0.32,0.3202,0.3237,0.3226,0.3197,0.3267,0.3229,0.3234,0.3271,0.3282,0.3291,0.3327,0.3175,0,0,0,0,0,0.3032,0.3052,0.3077,0.3087,0.3099,0.3126,0.3137,0.3165,0.3188,0.3203,0.3208,0.3227,0.3249,0.3259,0.3269,0.3286,0.3302,0.3314,0.3324,0.3332,0.3361,0.3429,0.3447,0.3252,0.3252,0.3252,0,0,0.3025,0.3044,0.3055,0.3084,0.3106,0.3134,0.3139,0.3171,0.3209,0.3192,0.3239,0.3249,0.3262,0.3302,0.3317,0.3299,0.3391,0.3338,0.3345,0.337,0.3436,0.3455,0.3472,0.3256,0.3255,0.3254,0,0,0.3021,0.3039,0.3056,0.3084,0.3124,0.3145,0.3157,0.3194,0.3228,0.3266,0.328,0.3322,0.3331,0.3368,0.3383,0.3447,0.3436,0.3448,0.3522,0.3587,0.3604,0.3619,0.3638,0.3655,0.3456,0.3456,0.3456,0,0.3011,0.3041,0.3063,0.3091,0.3117,0.3153,0.3183,0.322,0.3264,0.3302,0.3296,0.3375,0.3374,0.3451,0.3489,0.3468,0.3491,0.347,0.3599,0.3615,0.3629,0.3646,0.3663,0.3459,0.3459,0.3458,0.3458,0,0.3025,0.3058,0.3071,0.3126,0.3152,0.319,0.324,0.3289,0.3326,0.3367,0.3451,0.3469,0.3531,0.3533,0.3531,0.3638,0.3615,0.3597,0.3566,0.3652,0.3664,0.368,0.3464,0.3463,0.3462,0.3461,0,0,0.2993,0.3068,0.3079,0.3115,0.3181,0.3207,0.3282,0.3361,0.3427,0.3482,0.3572,0.3627,0.3658,0.3681,0.3686,0.3743,0.3846,0.3725,0.3727,0.3737,0.3971,0.3853,0.3859,0.3855,0.3859,0.3862,0.3929,0,0.3007,0.306,0.31,0.3167,0.3196,0.3269,0.3331,0.3412,0.3484,0.3578,0.3646,0.3716,0.3708,0.3744,0.3813,0.3843,0.3899,0.3828,0.3895,0.3896,0.3776,0.3879,0.3572,0.3599,0.3945,0.3948,0.395,0,0.3006,0.3049,0.3105,0.3198,0.322,0.327,0.3392,0.3459,0.3601,0.3665,0.3776,0.3818,0.3935,0.39,0.4029,0.3988,0.4004,0.4011,0.4013,0.3903,0.3812,0.3577,0.3616,0.3977,0.3975,0.3973,0.3971,0,0.2963,0.3054,0.31,0.3133,0.3237,0.3297,0.3363,0.3489,0.3567,0.3732,0.3811,0.3937,0.4018,0.4082,0.4114,0.4091,0.4227,0.4185,0.4088,0.4077,0.3831,0.3792,0.4282,0.4282,0.4282,0.4282,0.4282,0,0.295,0.2998,0.3091,0.3124,0.3191,0.3277,0.338,0.3473,0.3627,0.3717,0.3858,0.394,0.4077,0.4157,0.4167,0.4185,0.4276,0.4133,0.4109,0.3838,0.3802,0.4142,0.4124,0.4284,0.4284,0.4283,0.4283,0,0.2892,0.296,0.3026,0.3141,0.3169,0.3225,0.337,0.3462,0.3609,0.374,0.3798,0.3989,0.4086,0.4173,0.4267,0.4241,0.4256,0.4228,0.3881,0.3816,0.4047,0.4032,0.4148,0.4145,0.4142,0.414,0.4138,0,0.2863,0.2889,0.3003,0.3046,0.3105,0.3199,0.3271,0.3431,0.3515,0.373,0.378,0.3947,0.4007,0.4119,0.4107,0.4114,0.4196,0.3823,0.3729,0.408,0.4045,0.4034,0.4023,0.3412,0.3405,0.3399,0.3394,0,0.2816,0.287,0.2915,0.2982,0.3066,0.3126,0.3227,0.3279,0.3461,0.3564,0.3656,0.3722,0.3865,0.3743,0.3792,0.375,0.3801,0.3695,0.4183,0.3492,0.3392,0.3355,0.3368,0.3338,0.3343,0.3348,0.3351,0.3353,0.2767,0.2784,0.2848,0.2893,0.2973,0.2992,0.2986,0.309,0.3146,0.3225,0.3398,0.3405,0.3479,0.339,0.329,0.3244,0.3508,0.3354,0.3372,0.3396,0.3297,0.3198,0.3087,0.3091,0.3095,0.3098,0.31,0,0.2665,0.2701,0.2757,0.2777,0.278,0.2872,0.2905,0.2855,0.2822,0.2956,0.2996,0.2797,0.274,0.2815,0.2666,0.268,0.2644,0.2565,0.2486,0.2546,0.2598,0.2455,0.2023,0.2019,0.2016,0.2012,0,0,0.2622,0.261,0.2625,0.2557,0.2578,0.2495,0.2471,0.2424,0.2442,0.2391,0.2393,0.2612,0.2734,0.2332,0.2295,0.2123,0.2308,0.2042,0.2917,0.2883,0.2929,0.3076,0.2927,0,0,0,0,0]},{"header":{"parameterUnit":"m.s-1","parameterCategory":2,"la1":30.2991,"la2":30.254,"lo1":-89.0895,"lo2":-89.0444,"dy":0.0017,"dx":0.0017,"nx":28,"ny":28,"refTime":"2024-04-11T09:00:00:Z","depth":"2","parameterNumber":3,"parameterNumberName":"V-component_of_CURRENTS"},"data":[0,0,0,0,0,0,0,0,0,0,0,0,0,0,0,0,0,0,0,0,0,0,0,0,0,0,0,0,0,0,0,0,0,0,0,0,0,0,0,0,0,0,0,0,0,0,0,0,0,0,0,0,0,0,0,0,0,0,0.0131,0.0131,0,0.008,0.008,0.0079,0.0028,0.0027,0.0027,0.0027,-0.003,-0.0031,-0.0032,0,0,0,0,0,0,0,0,0,0,0,0,0,0.017,0.017,0.0131,0.0131,0.013,0.008,0.008,0.0079,0.0028,0.0027,0.0027,0.0026,-0.0029,-0.0031,-0.0032,0,0,0,0,0,0,0,0,0,0,0,0,0,0.0138,0.017,0.0131,0.0101,0.0098,0.0081,0.0079,0.0078,0.0028,0.0027,0.0027,0.0026,-0.0029,-0.0031,-0.0032,-0.0029,0,0,-0.0037,-0.0038,0,0,0,0,0,0,0,0,0.0139,0.0136,0.0106,0.0103,0.0099,0.0062,0.0073,0.0043,0.0028,0.0052,0.0027,0.0026,0.0003,-0.0002,-0.0013,-0.0031,-0.0034,-0.0037,-0.0038,-0.0039,-0.0039,0,0,0,0,0,0,0,0.0142,0.0138,0.0108,0.0105,0.0102,0.0085,0.008,0.0067,0.003,0.005,0.0047,0.0045,0.0,-0.0012,-0.0015,-0.0035,-0.0037,-0.0039,-0.004,-0.004,-0.0086,-0.0086,0,0,0,0,0,0,0.0155,0.014,0.011,0.0107,0.0121,0.0085,0.0079,0.0073,0.003,0.0023,0.0046,0.0043,-0.0008,-0.0013,-0.0017,-0.0015,-0.0039,-0.004,-0.0041,-0.0086,-0.0086,-0.0086,0,0,0,0,0,0,0.0156,0.0152,0.0112,0.0125,0.0119,0.0086,0.0079,0.0072,0.0061,0.0027,0.002,0.0042,-0.0009,-0.0015,-0.003,-0.0018,-0.0041,-0.0043,-0.0085,-0.0086,-0.0086,-0.0012,0,0,0,0,0,0,0.0157,0.0153,0.0154,0.0125,0.0119,0.0107,0.0079,0.0072,0.0062,0.0058,0.0022,0.0016,-0.001,-0.0028,-0.0032,-0.0021,-0.0044,-0.0085,-0.0085,-0.0086,-0.0014,-0.001,-0.0006,0,0,0,0,0,0.0158,0.0165,0.0154,0.015,0.012,0.0108,0.0103,0.0076,0.0063,0.0062,0.0034,0.0017,-0.0034,-0.0029,-0.0034,-0.0023,-0.0085,-0.0085,-0.0086,-0.0016,-0.0011,-0.0006,0,0,0,0,0,0,0.0184,0.016,0.0147,0.0146,0.0131,0.0101,0.01,0.0083,0.006,0.0055,0.002,0.0013,0.0003,-0.0024,-0.0017,-0.0041,-0.0065,-0.0066,-0.001,-0.0005,-0.0001,0.0035,-0.0045,0,0,0,0,0,0.0192,0.0189,0.0164,0.0165,0.0159,0.0131,0.0123,0.0106,0.0083,0.0071,0.0047,0.0017,-0.0003,-0.0014,-0.0038,-0.0044,-0.0065,-0.0045,-0.0041,-0.0037,-0.0014,-0.0038,-0.0033,-0.0088,-0.0088,-0.0088,0,0,0.0201,0.019,0.0187,0.0171,0.0155,0.0159,0.0124,0.0117,0.0125,0.0071,0.0071,0.0035,-0.0003,-0.0013,-0.0021,-0.0033,-0.0037,-0.0038,-0.0034,-0.0012,-0.0038,-0.0032,-0.0027,-0.0088,-0.0088,-0.0088,0,0,0.0228,0.021,0.0218,0.0212,0.0197,0.0182,0.0185,0.0157,0.0148,0.0142,0.0104,0.008,0.0045,0.0025,0.0009,0.0023,-0.0013,0.0002,0.0055,0.0031,0.0037,0.0041,0.0009,0.001,0.0003,0.0003,0.0003,0,0.024,0.025,0.022,0.0232,0.024,0.0199,0.022,0.0205,0.0178,0.0182,0.0151,0.0108,0.007,0.0071,0.0065,0.0037,0.001,0.0044,0.004,0.0044,0.0047,0.0013,0.0014,0.0007,0.0006,0.0006,0.0005,0,0.0273,0.0286,0.0293,0.0296,0.0298,0.0309,0.0291,0.029,0.0271,0.0255,0.0249,0.0193,0.0173,0.0144,0.0108,0.0111,0.0079,0.0051,0.0037,0.0058,0.002,0.0019,0.0012,0.001,0.0009,0.0008,0,0,0.0299,0.0313,0.0318,0.0346,0.0338,0.0351,0.0365,0.0374,0.0404,0.0354,0.0386,0.0324,0.0291,0.0271,0.0218,0.0187,0.017,0.013,0.0127,0.0116,0.0109,0.0072,0.0066,0.0138,0.0139,0.0139,0.007,0,0.0339,0.0387,0.038,0.0437,0.0467,0.0449,0.0478,0.048,0.0468,0.0483,0.0424,0.0425,0.0341,0.0334,0.029,0.0207,0.0172,0.0191,0.0077,0.0074,0.0052,0.0066,0.0096,0.0036,0.0068,0.0068,0.0068,0,0.038,0.0414,0.0475,0.0536,0.0548,0.0578,0.0631,0.0649,0.0647,0.0639,0.0615,0.0565,0.052,0.0445,0.0324,0.0337,0.0235,0.0159,0.0154,0.0101,0.0036,0.0019,0.0032,0.0066,0.0066,0.0066,0.0066,0,0.0436,0.0488,0.0549,0.0565,0.0615,0.0655,0.0685,0.0702,0.0745,0.0744,0.0768,0.0692,0.0674,0.0542,0.0368,0.0349,0.0227,0.0182,0.0054,0.005,0.0046,0.004,0.0105,0.0105,0.0105,0.0105,0.0105,0,0.0492,0.0544,0.0588,0.0627,0.0727,0.0731,0.0832,0.0846,0.0883,0.0951,0.086,0.0887,0.0697,0.0595,0.042,0.0237,0.0265,0.0078,0.0037,0.0068,0.0066,0.007,0.0067,0.0103,0.0103,0.0104,0.0104,0,0.0546,0.0564,0.0651,0.0724,0.0759,0.0835,0.0941,0.1011,0.1025,0.1112,0.1119,0.1042,0.0905,0.0697,0.0484,0.0321,0.0138,0.0062,0.0105,0.007,-0.0038,-0.0037,-0.0073,-0.0075,-0.0076,-0.0077,-0.0078,0,0.0578,0.0626,0.0733,0.0801,0.0844,0.0952,0.1037,0.1085,0.1163,0.1208,0.1259,0.1156,0.1095,0.0762,0.0459,0.0163,0.0121,-0.0005,-0.0034,-0.0016,-0.0053,-0.0049,-0.0046,-0.002,-0.0021,-0.0021,-0.0021,0,0.0656,0.0689,0.0761,0.0898,0.1003,0.1122,0.1241,0.1322,0.1384,0.1438,0.1472,0.1422,0.1121,0.082,0.0418,0.0219,0.0043,-0.0023,-0.0,0.0019,0.0027,-0.0007,-0.0004,-0.0025,-0.0024,-0.0024,-0.0024,-0.0024,0.0719,0.0783,0.0877,0.1008,0.1127,0.1268,0.1371,0.1479,0.1593,0.1667,0.1619,0.1539,0.1222,0.0697,0.0353,-0.0001,0.0019,-0.0106,-0.0102,-0.0098,-0.008,-0.0075,-0.0144,-0.0144,-0.0144,-0.0145,-0.0145,0,0.0798,0.0864,0.0983,0.1131,0.1256,0.1313,0.1491,0.1572,0.1693,0.175,0.1754,0.1437,0.1106,0.0734,0.0211,-0.0097,-0.011,-0.0197,-0.0142,-0.0136,-0.0131,-0.0114,-0.0188,-0.0189,-0.019,-0.0191,0,0,0.0843,0.0956,0.1006,0.1209,0.1313,0.1475,0.1574,0.1681,0.175,0.178,0.1732,0.1652,0.121,0.0822,0.0406,0.0104,0.0055,0.0047,0.0117,0.0238,0.0246,-0.0041,-0.0002,0,0,0,0,0]}],[{"header":{"parameterUnit":"m.s-1","parameterCategory":2,"la1":30.2991,"la2":30.254,"lo1":-89.0895,"lo2":-89.0444,"dy":0.0017,"dx":0.0017,"nx":28,"ny":28,"refTime":"2024-04-11T09:00:00:Z","depth":"4","parameterNumber":2,"parameterNumberName":"U-component_of_CURRENTS"},"data":[0,0,0,0,0,0,0,0,0,0,0,0,0,0,0,0,0,0,0,0,0,0,0,0,0,0,0,0,0,0,0,0,0,0,0,0,0,0,0,0,0,0,0,0,0,0,0,0,0,0,0,0,0,0,0,0,0,0,0.1764,0.1765,0,0.1795,0.1796,0.1796,0.1854,0.1856,0.1857,0.1858,0.1935,0.1936,0.1936,0,0,0,0,0,0,0,0,0,0,0,0,0,0.1713,0.1714,0.1764,0.1765,0.1766,0.1795,0.1796,0.1796,0.1854,0.1856,0.1857,0.1859,0.1935,0.1936,0.1937,0,0,0,0,0,0,0,0,0,0,0,0,0,0.1736,0.1714,0.1764,0.18,0.1804,0.1795,0.1796,0.1796,0.1854,0.1856,0.1858,0.186,0.1934,0.1936,0.1937,0.1902,0,0,0.194,0.1941,0,0,0,0,0,0,0,0,0.1735,0.1738,0.1794,0.1798,0.1802,0.1825,0.1806,0.1835,0.1853,0.1832,0.1858,0.1861,0.1903,0.1907,0.1903,0.1906,0.1909,0.194,0.1941,0.1941,0.1942,0,0,0,0,0,0,0,0.1734,0.1737,0.1774,0.1795,0.1799,0.1801,0.1806,0.1811,0.1854,0.1834,0.1839,0.1846,0.1905,0.1902,0.1906,0.191,0.194,0.1941,0.1942,0.1942,0.2045,0.2047,0,0,0,0,0,0,0.1735,0.1735,0.1773,0.1775,0.1776,0.18,0.1806,0.1814,0.1853,0.1862,0.1844,0.1849,0.1899,0.1904,0.1909,0.1998,0.1941,0.1942,0.1943,0.2043,0.2046,0.2048,0,0,0,0,0,0,0.1734,0.1738,0.1772,0.1758,0.1763,0.1799,0.1807,0.1813,0.1854,0.1861,0.187,0.1884,0.1901,0.1907,0.1964,0.1997,0.1943,0.1944,0.2041,0.2044,0.2047,0.2095,0,0,0,0,0,0,0.1732,0.1737,0.176,0.1758,0.1764,0.1799,0.1805,0.1812,0.1854,0.1861,0.1897,0.1904,0.1903,0.1963,0.1965,0.1998,0.1945,0.2038,0.2042,0.2046,0.2091,0.2099,0.2107,0,0,0,0,0,0.173,0.1746,0.176,0.1766,0.1788,0.18,0.1804,0.1833,0.1854,0.1877,0.1913,0.1905,0.1989,0.1965,0.1968,0.2001,0.2037,0.2041,0.2046,0.2087,0.2098,0.2107,0,0,0,0,0,0,0.1739,0.1754,0.177,0.1792,0.1812,0.1812,0.1838,0.1853,0.1895,0.1919,0.1925,0.1934,0.1994,0.1995,0.1968,0.2046,0.2013,0.2019,0.2044,0.2054,0.2062,0.2074,0.1946,0,0,0,0,0,0.1749,0.1768,0.1781,0.1804,0.1818,0.1834,0.1851,0.1872,0.1899,0.1921,0.1943,0.1976,0.2004,0.2031,0.2049,0.2088,0.21,0.2115,0.2123,0.213,0.2144,0.2201,0.2215,0.2063,0.2063,0.2063,0,0,0.1762,0.1771,0.1786,0.1808,0.1827,0.1844,0.1851,0.1889,0.1915,0.1921,0.1977,0.2002,0.2021,0.2069,0.2097,0.2082,0.2179,0.2136,0.2141,0.2152,0.2207,0.2222,0.2235,0.2067,0.2066,0.2066,0,0,0.1777,0.1805,0.1823,0.184,0.1876,0.1881,0.1902,0.1927,0.196,0.2009,0.2023,0.2078,0.2114,0.2137,0.2152,0.2216,0.2215,0.2226,0.2279,0.2334,0.2347,0.2358,0.2384,0.2397,0.2234,0.2235,0.2235,0,0.1797,0.181,0.1832,0.185,0.1868,0.1902,0.1923,0.1951,0.1996,0.2028,0.2046,0.2127,0.2146,0.2202,0.2236,0.2233,0.2259,0.2236,0.2344,0.2355,0.2366,0.239,0.2404,0.2237,0.2237,0.2237,0.2237,0,0.181,0.1836,0.1849,0.1879,0.1905,0.193,0.1967,0.2011,0.2056,0.2084,0.2167,0.2203,0.2262,0.2271,0.2279,0.2363,0.2353,0.2341,0.2315,0.2384,0.2404,0.2418,0.2242,0.2241,0.224,0.2239,0,0,0.1805,0.1849,0.1856,0.1873,0.1923,0.1937,0.1998,0.2048,0.2108,0.2164,0.2238,0.2297,0.2342,0.2364,0.2381,0.243,0.2526,0.2433,0.2435,0.245,0.2642,0.2479,0.2477,0.2541,0.2544,0.2546,0.2621,0,0.1809,0.1833,0.1862,0.1897,0.1911,0.1966,0.202,0.2083,0.2153,0.2236,0.2293,0.2376,0.2369,0.2429,0.2477,0.2522,0.2568,0.2506,0.258,0.2582,0.2422,0.249,0.2556,0.2631,0.2634,0.2636,0.2638,0,0.1798,0.1815,0.1848,0.1904,0.1922,0.1965,0.2062,0.2121,0.2242,0.2309,0.2402,0.2458,0.2555,0.2543,0.265,0.2619,0.2648,0.2663,0.2666,0.2508,0.2444,0.2552,0.2663,0.2661,0.2659,0.2657,0.2656,0,0.1745,0.1798,0.1821,0.1839,0.1918,0.197,0.2034,0.2154,0.2227,0.238,0.2458,0.2562,0.265,0.2701,0.2753,0.2728,0.2852,0.2813,0.268,0.2668,0.277,0.2757,0.2889,0.2889,0.2889,0.2889,0.2889,0,0.1699,0.1722,0.1811,0.1818,0.1886,0.1964,0.2064,0.2153,0.2302,0.239,0.2512,0.2591,0.2705,0.2781,0.2797,0.2782,0.2895,0.2702,0.2685,0.2786,0.2775,0.2778,0.2765,0.2892,0.2891,0.2891,0.289,0,0.1617,0.1678,0.171,0.181,0.1859,0.1913,0.2072,0.2137,0.2305,0.2429,0.249,0.2657,0.2756,0.2825,0.2919,0.2829,0.2833,0.2798,0.2908,0.2893,0.2596,0.2584,0.2646,0.2641,0.2636,0.2633,0.263,0,0.1568,0.1574,0.1686,0.1729,0.1783,0.1886,0.1955,0.2125,0.2202,0.2436,0.248,0.2651,0.2733,0.2725,0.2813,0.2821,0.2786,0.2754,0.2662,0.2598,0.2576,0.2571,0.2565,0.2623,0.2622,0.2621,0.262,0,0.1472,0.153,0.1569,0.1647,0.1726,0.1788,0.1911,0.1955,0.2149,0.2317,0.2415,0.2471,0.2575,0.2629,0.2664,0.2659,0.2751,0.2709,0.2716,0.263,0.2572,0.2553,0.2552,0.2605,0.2608,0.2609,0.261,0,0.1424,0.143,0.15,0.1554,0.1641,0.167,0.1739,0.1831,0.1935,0.2195,0.2222,0.2394,0.2557,0.2548,0.2578,0.2567,0.2516,0.2402,0.2425,0.2442,0.2338,0.2233,0.216,0,0,0,0,0,0.1365,0.1365,0.14,0.1456,0.1521,0.1573,0.1702,0.1776,0.1966,0.198,0.2102,0.2188,0.2252,0.2346,0.2292,0.2476,0.2515,0.2399,0.2393,0.2525,0.2541,0.2437,0,0,0,0,0,0,0.134,0.1375,0.1367,0.1356,0.1367,0.1429,0.1496,0.1615,0.1643,0.1846,0.1901,0.2052,0.2155,0.2271,0.2255,0.2279,0.2224,0.2514,0.2508,0.2515,0.253,0.2544,0.2443,0,0,0,0,0]},{"header":{"parameterUnit":"m.s-1","parameterCategory":2,"la1":30.2991,"la2":30.254,"lo1":-89.0895,"lo2":-89.0444,"dy":0.0017,"dx":0.0017,"nx":28,"ny":28,"refTime":"2024-04-11T09:00:00:Z","depth":"4","parameterNumber":3,"parameterNumberName":"V-component_of_CURRENTS"},"data":[0,0,0,0,0,0,0,0,0,0,0,0,0,0,0,0,0,0,0,0,0,0,0,0,0,0,0,0,0,0,0,0,0,0,0,0,0,0,0,0,0,0,0,0,0,0,0,0,0,0,0,0,0,0,0,0,0,0,0.0202,0.0202,0,0.0184,0.0184,0.0183,0.0175,0.0175,0.0175,0.0175,0.0149,0.0148,0.0147,0,0,0,0,0,0,0,0,0,0,0,0,0,0.0211,0.0211,0.0202,0.0202,0.0202,0.0184,0.0184,0.0183,0.0175,0.0175,0.0175,0.0175,0.0149,0.0148,0.0147,0,0,0,0,0,0,0,0,0,0,0,0,0,0.0202,0.0211,0.0202,0.0195,0.0195,0.0184,0.0184,0.0183,0.0175,0.0175,0.0175,0.0175,0.0149,0.0148,0.0147,0.014,0,0,0.0144,0.0143,0,0,0,0,0,0,0,0,0.0202,0.0201,0.0197,0.0196,0.0195,0.0182,0.0177,0.0168,0.0175,0.0182,0.0175,0.0175,0.0159,0.0157,0.0154,0.0138,0.0137,0.0144,0.0143,0.0142,0.0142,0,0,0,0,0,0,0,0.0203,0.0202,0.0195,0.0196,0.0195,0.0187,0.0186,0.0175,0.017,0.0182,0.0181,0.0179,0.0158,0.0155,0.0153,0.0137,0.0144,0.0143,0.0142,0.0142,0.0124,0.0125,0,0,0,0,0,0,0.0206,0.0203,0.0195,0.0194,0.0199,0.0187,0.0186,0.0186,0.0171,0.0169,0.0179,0.0179,0.0156,0.0154,0.0152,0.016,0.0142,0.0141,0.0141,0.0124,0.0124,0.0125,0,0,0,0,0,0,0.0207,0.0206,0.0196,0.0198,0.0196,0.0187,0.0187,0.0186,0.0188,0.0169,0.0167,0.0184,0.0156,0.0153,0.015,0.0158,0.0141,0.014,0.0124,0.0124,0.0124,0.0165,0,0,0,0,0,0,0.0207,0.0206,0.021,0.0198,0.0196,0.0197,0.0187,0.0185,0.0186,0.0186,0.0172,0.0169,0.0156,0.0152,0.0149,0.0156,0.0139,0.0124,0.0124,0.0124,0.0163,0.0167,0.0169,0,0,0,0,0,0.0207,0.0212,0.021,0.021,0.0201,0.0198,0.0196,0.0189,0.0187,0.0191,0.0182,0.017,0.0152,0.0151,0.0148,0.0155,0.0123,0.0124,0.0124,0.0162,0.0166,0.0169,0,0,0,0,0,0,0.0217,0.0212,0.0209,0.0212,0.0209,0.0197,0.0198,0.0194,0.019,0.019,0.0174,0.017,0.017,0.0156,0.0156,0.015,0.0135,0.0135,0.0165,0.0169,0.0171,0.018,0.0138,0,0,0,0,0,0.0222,0.0226,0.0218,0.0221,0.022,0.0211,0.021,0.0206,0.0199,0.0197,0.0188,0.0177,0.0168,0.0164,0.0154,0.0151,0.012,0.0153,0.0156,0.0158,0.0163,0.0118,0.0117,0.0126,0.0126,0.0126,0,0,0.0226,0.0224,0.0226,0.0224,0.022,0.0229,0.0211,0.0212,0.0224,0.0195,0.0207,0.0188,0.017,0.0169,0.0167,0.0159,0.0139,0.0159,0.0162,0.0164,0.0118,0.0117,0.0116,0.0126,0.0126,0.0126,0,0,0.024,0.0236,0.0246,0.0249,0.0247,0.0243,0.0246,0.0239,0.0241,0.0246,0.0228,0.0213,0.0206,0.019,0.0182,0.0194,0.0157,0.0191,0.0213,0.017,0.0168,0.0167,0.0123,0.0117,0.0192,0.0192,0.0192,0,0.0245,0.0262,0.0248,0.0262,0.0273,0.0254,0.0273,0.027,0.0265,0.0266,0.0258,0.0234,0.0216,0.0209,0.0213,0.0202,0.0169,0.0203,0.0173,0.0171,0.0169,0.0124,0.0117,0.0194,0.0194,0.0194,0.0193,0,0.0269,0.0287,0.0294,0.0309,0.0315,0.0329,0.0325,0.033,0.0327,0.0317,0.0309,0.028,0.0265,0.0254,0.0239,0.0218,0.0196,0.0183,0.0165,0.0171,0.0123,0.0115,0.0197,0.0196,0.0196,0.0195,0,0,0.0275,0.0305,0.0311,0.0337,0.0346,0.0357,0.0374,0.0381,0.0395,0.0372,0.038,0.0349,0.0321,0.031,0.028,0.024,0.0193,0.0208,0.0205,0.0166,0.0091,0.009,0.0081,0.0171,0.017,0.0169,0.0063,0,0.0303,0.0349,0.0353,0.0403,0.043,0.0427,0.045,0.045,0.0441,0.044,0.0393,0.0389,0.0347,0.0342,0.0292,0.0222,0.0175,0.0223,0.009,0.0087,0.0086,0.0073,0.0166,0.0057,0.0055,0.0054,0.0053,0,0.033,0.0363,0.0417,0.047,0.048,0.0508,0.054,0.0556,0.0538,0.0529,0.0496,0.0456,0.0401,0.0367,0.0236,0.0267,0.0185,0.0121,0.0115,0.0096,0.0071,0.005,0.0038,0.0039,0.004,0.0041,0.0042,0,0.0358,0.0412,0.0462,0.0481,0.0527,0.0559,0.0584,0.0586,0.0611,0.0586,0.0588,0.0506,0.048,0.0361,0.0229,0.023,0.0076,0.006,-0.0022,-0.0024,-0.0009,-0.0006,-0.0037,-0.0037,-0.0037,-0.0037,-0.0036,0,0.0393,0.0436,0.0487,0.0521,0.0593,0.0607,0.0672,0.0678,0.0691,0.0717,0.0641,0.0634,0.0477,0.0372,0.024,0.0086,0.0081,-0.0022,-0.0051,0.001,0.0016,-0.0015,-0.0011,-0.0041,-0.004,-0.0039,-0.0038,0,0.0416,0.0446,0.0515,0.0582,0.0614,0.0667,0.0751,0.0787,0.079,0.0821,0.0819,0.0728,0.0592,0.0422,0.0228,0.0116,-0.004,-0.0094,-0.0016,-0.0038,-0.0117,-0.011,-0.0199,-0.02,-0.0201,-0.0202,-0.0202,0,0.0431,0.047,0.0564,0.0616,0.0657,0.0742,0.08,0.084,0.0881,0.0878,0.0892,0.078,0.0697,0.0421,0.0235,-0.0024,-0.0059,-0.0149,-0.0136,-0.0115,-0.0134,-0.0125,-0.0117,-0.0204,-0.0204,-0.0204,-0.0204,0,0.0465,0.0498,0.0554,0.0663,0.0743,0.0832,0.092,0.0959,0.0993,0.0994,0.0954,0.0811,0.0656,0.0434,0.0233,0.0047,-0.0097,-0.0158,-0.0157,-0.0147,-0.0121,-0.0137,-0.0128,-0.0207,-0.0207,-0.0206,-0.0206,0,0.0491,0.0533,0.061,0.0704,0.0804,0.0895,0.0941,0.0993,0.1034,0.1029,0.1012,0.0842,0.0746,0.0471,0.0285,0.0102,0.0053,-0.0015,-0.0023,-0.0022,0.006,0.0121,0.0081,0,0,0,0,0,0.0515,0.0564,0.0648,0.0752,0.0846,0.091,0.1007,0.104,0.1075,0.1057,0.1041,0.0898,0.0625,0.0507,0.0325,0.0258,0.0011,0.0035,-0.0073,-0.0222,-0.0219,-0.0153,0,0,0,0,0,0,0.0533,0.0609,0.0646,0.0771,0.0845,0.0957,0.1021,0.1045,0.1041,0.1042,0.0905,0.0841,0.0581,0.0731,0.0318,0.0262,0.0165,-0.0088,-0.0092,-0.0224,-0.0221,-0.0218,-0.0149,0,0,0,0,0]}]]